Location: Newark
(36.1358°N, 115.1208°W)
Time: 01:35:35
(UTC+00:00)

Vanguard 1 Rocket - Pass Details

Date: 21 February 2020
Orbit: 650 x 4226 km, 34.3° (Epoch: 06 April)

Event Time Altitude Azimuth Distance (km) Brightness Sun altitude
Rises 08:47:40 0° 227° (SW) 5,915 - -61.8°
Reaches altitude 10° 08:52:42 10° 220° (SW) 4,284 - -61.3°
Maximum altitude 09:01:35 34° 161° (SSE) 1,871 - -60.3°
Drops below altitude 10° 09:06:56 10° 96° (E) 2,548 - -59.7°
Sets 09:09:10 0° 86° (E) 3,277 - -59.4°
